Miscellaneous Local Product
Issued by NWS Hastings, NE

Home | Current Version | Previous Version | Graphics & Text | Print | Product List | Glossary On
Versions: 1 2 3 4 5 6 7 8 9 10 11 12 13 14 15 16 17 18 19 20 21 22 23 24 25 26 27 28 29 30 31 32 33 34 35 36 37 38 39 40 41 42 43 44 45 46 47 48 49 50
523
AXUS43 KGID 211302
MISGRI

GID CWA HOURLY WEATHER ROUNDUP
NATIONAL WEATHER SERVICE HASTINGS NE
700 AM CST SAT JAN 21 2017

NOTE: "FAIR" INDICATES FEW OR NO CLOUDS BELOW 12,000 FEET WITH NO
SIGNIFICANT WEATHER AND/OR OBSTRUCTIONS TO VISIBILITY.

...SOUTH CENTRAL NEBRASKA...

CITY           SKY/WX    TMP DP  RH WIND       PRES   REMARKS
GRAND ISLAND   PTCLDY    32  31  96 SW7       29.40R WCI  26
HASTINGS       CLEAR     34  31  88 W7        29.42R WCI  28
KEARNEY        CLEAR     32 -17  11 SW9       29.41R WCI  24
ORD            PTCLDY    32  30  92 CALM      29.37S
YORK           CLOUDY    32  32 100 W7        29.41R WCI  26
AURORA         PTCLDY    33  33 100 W7        29.41R WCI  27
LEXINGTON      CLEAR     30  29  94 CALM      29.41R
HOLDREGE       CLEAR     31  30  96 SW5       29.42R WCI  26
HEBRON         PTCLDY    32  32 100 SW7       29.44R WCI  26

...NEBRASKA PANHANDLE...

CITY           SKY/WX    TMP DP  RH WIND       PRES   REMARKS
CHADRON        CLEAR     25  21  85 SW7       29.39R WCI  17
ALLIANCE       CLEAR     15  12  88 W5        29.37S WCI   8
SCOTTSBLUFF    CLEAR     21  17  84 CALM      29.38S
SIDNEY         CLEAR     22  17  81 W3        29.39R

...WESTERN AND NORTH CENTRAL NEBRASKA...

CITY           SKY/WX    TMP DP  RH WIND       PRES   REMARKS
VALENTINE      CLOUDY    32  29  88 SW9       29.35S WCI  24
AINSWORTH      MOCLDY    34  32  93 W5        29.35S WCI  30
ONEILL         PTCLDY    32  31  98 W5        29.36S WCI  27
BROKEN BOW     CLOUDY    33  31  92 CALM      29.38R
IMPERIAL       CLEAR     27  23  85 W8        29.42R WCI  19
NORTH PLATTE   CLEAR     23  21  92 W7        29.40R FOG     WCI  15
MCCOOK         CLEAR     28  27  96 W9        29.44R WCI  19

...EASTERN NEBRASKA...

CITY           SKY/WX    TMP DP  RH WIND       PRES   REMARKS
NORFOLK        PTCLDY    33  31  92 W6        29.36S WCI  28
SO SIOUX CITY  FOG       38  37  97 W5        29.37R VSB 3/4 WCI  34
TEKAMAH        FOG       37  36  96 SW9       29.39R VSB 1/2 WCI  30
COLUMBUS       CLOUDY    32  30  93 SW3       29.40R VSB 1/2
ALBION         PTCLDY   N/A N/A N/A NW3       29.38R
OMAHA EPPLEY   CLOUDY    40  37  89 SW5       29.40R FOG
MILLARD        CLOUDY    41  40  97 CALM      29.40R FOG
LINCOLN        MOCLDY    35  34  96 SW5       29.43R FOG     WCI  31
NEBRASKA CITY  SNOW      38  38 100 SW10G17   29.41S VSB 1/4 WCI  30
BEATRICE       FOG       32  32 100 W6        29.44R VSB 3/4 WCI  27
FALLS CITY     CLOUDY    42  41  96 W10       29.44R

...NORTHERN KANSAS...

CITY           SKY/WX    TMP DP  RH WIND       PRES   REMARKS
GOODLAND       CLEAR     24  22  91 SW3       29.42S
HILL CITY      CLEAR     28  27  96 W7        29.46R WCI  21
NORTON         SUNNY     30  27  86 W7        29.44  WCI  23
PHILLIPSBURG   CLEAR     30  30 100 W3        29.46R
SMITH CENTER   CLEAR     28  28 100 W5        29.46R WCI  23
HAYS           CLOUDY    29  28  96 NW7       29.47R WCI  22
RUSSELL        CLEAR     30  28  92 W9        29.45R WCI  22
CONCORDIA      CLEAR     34  34 100 W7        29.45S WCI  28
SALINA         CLEAR     34  32  92 NW8       29.46  WCI  27
TOPEKA         FOG       32  30  92 SW3       29.47R VSB 1/4



USA.gov is the U.S. government's official web portal to all federal, state and local government web resources and services.